Location: Maddington
(51.2000°N, 1.9167°W)
Time: 15:50:50
(UTC+00:00)

NOSS 3-2 (C) - Pass Details

Date: 18 September 2020
Orbit: 795 x 1418 km, 63.4° (Epoch: 25 October)

Event Time Altitude Azimuth Distance (km) Brightness Sun altitude
Rises 20:32:23 0° 315° (NW) 3,913 8.1 -21.3°
Reaches altitude 10° 20:34:54 10° 314° (NW) 3,037 7.2 -21.7°
Maximum altitude 20:42:16 75° 231° (SW) 1,306 4.1 -22.6°
Enters shadow 20:46:12 35° 153° (SSE) 2,009 4.6 -23.1°
